カタログに戻る

COSMOS 1729

運用中軍事HEO
NORAD 16527·PAYLOAD·🇷🇺 Russia

打ち上げ Feb 1, 1986 から Plesetsk Cosmodrome

Loading…

次のパス (今後24時間)

TLE

最新Source: Space-Track

元期: Sep 14, 2026, 12:18 UTC

1 16527U 86011A   26257.51250190  .00000022  00000-0  00000-0 0  9996
2 16527  70.9459 185.8458 4586938  37.3326  86.5597  2.00604545297546

AllMySatでCOSMOS 1729をリアルタイム追跡

Download on the App Store